Weather Roundup
Issued by NWS Chicago, IL

Home | Current Version | Previous Version | Text Only | Print | Product List | Glossary Off
Versions: 1 2 3 4 5 6 7 8 9 10 11 12 13 14 15 16 17 18 19 20 21 22 23 24 25 26 27 28 29 30 31 32 33 34 35 36 37 38 39 40 41 42 43 44 45 46 47 48 49 50

000
NZUS59 KLOT 080008
HRRLOT

CHICAGO AREA WEATHER ROUNDUP
NATIONAL WEATHER SERVICE CHICAGO/ROMEOVILLE IL
700 PM CDT TUE JUL 07 2015

NOTE: "FAIR" INDICATES FEW OR NO CLOUDS BELOW 12,000 FEET WITH NO
SIGNIFICANT WEATHER AND/OR OBSTRUCTIONS TO VISIBILITY.

* THESE STATIONS ARE NOT UNDER NWS QUALITY CONTROL. THEY ALSO MAY NOT
  REPORT WEATHER SUCH AS PRECIPITATION OR FOG.

ILZ005-006-012>014-019>023-080100-
NORTHEAST ILLINOIS

CITY           SKY/WX    TMP DP  RH WIND       PRES   REMARKS
OHARE          MOSUNNY   63  46  54 NE13      30.07R
6HR MIN TEMP:  63; 6HR MAX TEMP:  68;

MIDWAY         MOSUNNY   64  46  52 NE17      30.07R
6HR MIN TEMP:  64; 6HR MAX TEMP:  69;

AURORA         MOSUNNY   66  50  56 E13       30.07R
6HR MIN TEMP:  66; 6HR MAX TEMP:  72;

LANSING*       SUNNY     61  46  57 N12G17    30.07S
JOLIET*        SUNNY     65  50  58 NE10      30.06S
WAUKEGAN       SUNNY     59  47  64 NE9       30.08R
6HR MIN TEMP:  58; 6HR MAX TEMP:  65;

DUPAGE AIRPORT SUNNY     63  49  60 E8        30.07R
6HR MIN TEMP:  63; 6HR MAX TEMP:  71;

WHEELING       SUNNY     62  45  53 NE13G20   30.09R
6HR MIN TEMP:  62; 6HR MAX TEMP:  66;

KANKAKEE*      MOSUNNY   64  51  62 N10G16    30.06R
MORRIS*        MOSUNNY   67  53  59 NE6       30.04R
LEWIS AIRPORT* SUNNY     63  48  56 E13       30.07R
NORTHERLY IS     N/A     60  49  66 MISG        N/A
$$

WIZ051-052-058>065-066-070>072-080100-
SOUTHEAST WISCONSIN

CITY           SKY/WX    TMP DP  RH WIND       PRES   REMARKS
MILWAUKEE      MOSUNNY   60  48  64 NE10      30.09R
6HR MIN TEMP:  60; 6HR MAX TEMP:  66;

KENOSHA*       SUNNY     62  49  62 NE8       30.08S
RACINE*        SUNNY     60  48  64 NE10      30.10R
BURLINGTON     SUNNY     62  49  63 E8        30.08R
WAUKESHA       MOSUNNY   61  48  63 NE9       30.10R
WEST BEND      CLOUDY    59  46  63 E6        30.09R
$$

INZ001>003-010>013-019-020-080100-
NORTHWEST INDIANA

CITY           SKY/WX    TMP DP  RH WIND       PRES   REMARKS
GARY*          MOSUNNY   63  50  63 N14G25    30.07S
MICHIGAN CITY* NOT AVBL
RENSSELAER*    NOT AVBL
VALPARAISO     SUNNY     62  48  60 N7G18     30.05R
$$

LMZ740>746-080100-
SOUTHERN LAKE MICHIGAN

STATION/POSITION TIME  SKY/WX   TEMP WIND        PRES    VSBY
                                AIR  DIR/SP/G
                 (UTC)          (F)  (DEG/KT/KT) (MB)    (MI)
HARRISON CRIB    2300            58   20/ 16/ 19   N/A
BURNHAM HARBOR   0000            60   20/ 11/ 12   N/A
CALUMET HARBOR   2300            61  360/  9/ 14   N/A
BURNS HARBOR     2300            61   20/ 19/ 22 1017.9S
MICHIGAN CITY    2300            61  360/ 28/ 31   N/A
$$

ABBREVIATIONS USED IN REMARKS
   TC - TEMPERATURE IN CELSIUS
  WCI - WIND CHILL INDEX
   HX - HEAT INDEX
  VSB - VISIBILITY
$$



USA.gov is the U.S. government's official web portal to all federal, state and local government web resources and services.